Weather History for KEWN - February, 2014

Change the Weather History Date:

Wednesday, February 12, 2014

  Actual Average Record
Temperature  
Mean Temperature 40 °F 46 °F  
Max Temperature 51 °F 57 °F 78 °F (1965)
Min Temperature 29 °F 36 °F 13 °F (1968)
Degree Days  
Heating Degree Days 25 19  
Month to date heating degree days 246 232  
Since 1 July heating degree days 1827 1872  
Cooling Degree Days 0 0  
Month to date cooling degree days 0 0  
Year to date cooling degree days 1 1  
Moisture  
Dew Point 30 °F    
Average Humidity 78    
Maximum Humidity 93    
Minimum Humidity 63    
Precipitation  
Precipitation 0.29 in 0.12 in 1.55 in (1972)
Month to date precipitation 1.79 1.48  
Year to date precipitation 5.76 5.50  
Snow  
Snow 0.00 in - - ()
Month to date snowfall 10.0  
Since 1 July snowfall 10.0  
Snow Depth -    
Sea Level Pressure  
Sea Level Pressure 30.20 in    
Wind  
Wind Speed 13 mph (NNE)    
Max Wind Speed 23 mph    
Max Gust Speed 29 mph    
Visibility 7 miles    
Events Rain    
T = Trace of Precipitation, MM = Missing Value Source: NWS Daily Summary

Daily Weather History Graph

Daily Weather History Graph

Search for Another Location

Airport or City:

Trip Planner

Search our weather history database for the weather conditions in past years. The results will help you decide how hot, cold, wet, or windy it might be!

Date:

Astronomy

Feb. 12, 2014 Rise Set
Actual Time 6:57 AM EST 5:47 PM EST
Civil Twilight 6:31 AM EST 6:13 PM EST
Nautical Twilight 6:01 AM EST 6:43 PM EST
Astronomical Twilight 5:32 AM EST 7:13 PM EST
Moon 4:01 PM EST (2/12) 5:10 AM EST (2/12)
Length of Visible Light 11h 42m
Length of Day
10h 50m
Waxing Gibbous, 95% of the Moon is Illuminated
Feb 12
Waxing Gibbous
Feb 14
Full
Feb 22
Last Quarter
Mar 1
New
Mar 8
First Quarter

Hourly Weather History & Observations

Time (EST) Temp. Windchill Dew Point Humidity Pressure Visibility Wind Dir Wind Speed Gust Speed Precip Events Conditions
12:54 AM 30.0 °F 20.0 °F 19.9 °F 66% 30.39 in 10.0 mi NNE 12.7 mph - N/A   Overcast
1:54 AM 30.0 °F 20.0 °F 21.0 °F 69% 30.39 in 10.0 mi NNE 12.7 mph - N/A   Overcast
2:54 AM 30.0 °F 20.0 °F 21.0 °F 69% 30.37 in 10.0 mi NNE 12.7 mph - N/A   Overcast
3:54 AM 30.0 °F 20.0 °F 21.0 °F 69% 30.37 in 10.0 mi NNE 12.7 mph - N/A   Mostly Cloudy
4:54 AM 30.0 °F 20.5 °F 21.0 °F 69% 30.37 in 10.0 mi NNE 11.5 mph - N/A   Clear
5:54 AM 28.9 °F 19.2 °F 21.0 °F 72% 30.38 in 10.0 mi NNE 11.5 mph - N/A   Clear
6:54 AM 30.0 °F 19.5 °F 21.0 °F 69% 30.38 in 10.0 mi NNE 13.8 mph - N/A   Scattered Clouds
7:54 AM 30.0 °F 20.0 °F 21.9 °F 72% 30.38 in 10.0 mi NNE 12.7 mph - N/A   Overcast
8:54 AM 30.0 °F 20.0 °F 23.0 °F 75% 30.38 in 10.0 mi NNE 12.7 mph - N/A   Overcast
9:50 AM 30.2 °F 20.2 °F 24.8 °F 80% 30.38 in 6.0 mi NNE 12.7 mph - 0.00 in Rain Light Freezing Rain
9:54 AM 30.9 °F 22.2 °F 25.0 °F 79% 30.38 in 6.0 mi NNE 10.4 mph - 0.00 in Rain Light Freezing Rain
10:54 AM 30.9 °F 20.2 °F 26.1 °F 82% 30.34 in 5.0 mi NNE 15.0 mph - 0.04 in Rain Light Freezing Rain
11:29 AM 32.0 °F 22.5 °F 28.4 °F 87% 30.33 in 4.0 mi NNE 12.7 mph - 0.03 in Rain Light Freezing Rain
11:37 AM 32.0 °F 22.5 °F 28.4 °F 87% 30.33 in 3.0 mi NNE 12.7 mph - 0.04 in Rain Light Freezing Rain
11:54 AM 32.0 °F 21.6 °F 28.9 °F 88% 30.30 in 3.0 mi NNE 15.0 mph - 0.06 in Rain Light Freezing Rain
12:18 PM 33.8 °F 23.9 °F 28.4 °F 81% 30.28 in 4.0 mi NNE 15.0 mph - 0.02 in Rain Light Freezing Rain
12:49 PM 33.8 °F 23.9 °F 30.2 °F 87% 30.27 in 4.0 mi NNE 15.0 mph 21.9 mph 0.06 in Rain Light Freezing Rain
12:51 PM 33.8 °F 24.3 °F 30.2 °F 87% 30.27 in 3.0 mi NNE 13.8 mph 21.9 mph 0.06 in Rain Light Freezing Rain
12:54 PM 34.0 °F 24.6 °F 30.0 °F 85% 30.26 in 3.0 mi NNE 13.8 mph 21.9 mph 0.07 in Rain Light Freezing Rain
1:34 PM 33.8 °F 23.9 °F 30.2 °F 87% 30.23 in 7.0 mi NNE 15.0 mph 23.0 mph 0.04 in Rain Light Freezing Rain
1:46 PM 33.8 °F 24.8 °F 30.2 °F 87% 30.22 in 6.0 mi NNE 12.7 mph 23.0 mph 0.05 in Rain Light Rain
1:54 PM 34.0 °F 24.2 °F 30.9 °F 89% 30.21 in 7.0 mi NNE 15.0 mph - 0.06 in Rain Light Rain
2:01 PM 33.8 °F 23.9 °F 30.2 °F 87% 30.20 in 7.0 mi NNE 15.0 mph 23.0 mph 0.01 in Rain Rain
2:17 PM 33.8 °F 23.9 °F 30.2 °F 87% 30.19 in 8.0 mi NNE 15.0 mph - 0.02 in Rain Light Rain
2:54 PM 35.1 °F 26.4 °F 30.9 °F 85% 30.17 in 8.0 mi NNE 12.7 mph - 0.03 in Rain Light Rain
3:54 PM 35.1 °F 24.8 °F 32.0 °F 89% 30.12 in 8.0 mi NNE 17.3 mph 26.5 mph 0.02 in Rain Light Rain
4:54 PM 35.1 °F 25.9 °F 32.0 °F 89% 30.10 in 10.0 mi NNE 13.8 mph 23.0 mph 0.00 in   Overcast
5:54 PM 36.0 °F 26.0 °F 33.1 °F 89% 30.06 in 4.0 mi NE 17.3 mph 24.2 mph 0.00 in Rain Light Rain
6:54 PM 37.0 °F 27.7 °F 34.0 °F 89% 30.00 in 10.0 mi NE 16.1 mph 21.9 mph 0.00 in   Overcast
7:44 PM 39.2 °F 30.5 °F 35.6 °F 87% 29.94 in 10.0 mi NE 16.1 mph 24.2 mph 0.00 in   Overcast
7:54 PM 39.0 °F 31.0 °F 37.0 °F 93% 29.93 in 10.0 mi NE 13.8 mph - 0.00 in   Overcast
8:54 PM 44.1 °F 37.7 °F 42.1 °F 93% 29.86 in 9.0 mi ENE 12.7 mph - N/A   Overcast
9:54 PM 48.0 °F - 46.0 °F 93% 29.82 in 9.0 mi ENE 13.8 mph 23.0 mph 0.00 in   Overcast
10:54 PM 50.0 °F - 48.0 °F 93% 29.74 in 10.0 mi East 6.9 mph - N/A   Overcast
11:54 PM 51.1 °F - 48.9 °F 92% 29.68 in 5.0 mi ENE 13.8 mph - 0.01 in Rain Light Rain